{"data":{"norad_id":65788,"intl_designator":"2025-217AC","name":"KUIPER-00176","alt_names":[],"object_type":"PAYLOAD","status":"ACTIVE","operator":null,"country":"US","launch_date":"2025-09-25","launch_site_code":"AFETR","launch_vehicle":null,"mission":null,"orbit_class":"UNKNOWN","rcs_meters":null,"size_class":null,"mass_kg":null,"dimensions":null,"purposes":[],"wikipedia_slug":null,"has_3d_model":false,"image_url":null,"decayed_at":null,"tle_current":{"epoch":"2026-09-20T23:30:35.013024Z","epoch_age_seconds":105349,"freshness":"FRESH","line1":"1 65788U 25217AC  26263.97957191  .00001616  00000+0  24097-3 0  9996","line2":"2 65788  51.8990 259.5227 0000832  49.4293 310.6742 14.79924973 53796","mean_motion":14.79924973,"eccentricity":8.32e-5,"inclination_deg":51.899,"raan_deg":259.5227,"arg_perigee_deg":49.4293,"mean_anomaly_deg":310.6742,"bstar":0.00024097,"rev_number":5379,"period_min":97.302229928652,"perigee_km":628.97792806845,"apogee_km":630.14400901041,"semimajor_km":7007.6979685394,"source":"CELESTRAK","updated_at":"2026-09-21T09:00:15.562956Z"}}}